Weather History for Mason, MI

Change the Weather History Date:

Saturday, July 27, 2013

  Actual Average (KLAN) Record (KLAN)
Temperature  
Mean Temperature 66 °F 71 °F  
Max Temperature 77 °F 82 °F 100 °F (1894)
Min Temperature 56 °F 61 °F 42 °F (1977)
Degree Days  
Heating Degree Days 0 0  
Month to date heating degree days 2  
Since 1 June heating degree days 57  
Since 1 July heating degree days 2  
Cooling Degree Days 2 7  
Month to date cooling degree days 189  
Year to date cooling degree days 362  
Since 1 June cooling degree days 321  
Growing Degree Days 16 (Base 50)    
Moisture  
Dew Point 57 °F    
Average Humidity 74    
Maximum Humidity 91    
Minimum Humidity 50    
Precipitation  
Precipitation 0.00 in 0.10 in 2.15 in (2011)
Month to date precipitation 2.46  
Year to date precipitation 17.48  
Snow  
Snow 0.00 in 0.00 in 0.00 in ()
Month to date snowfall 0.0  
Since 1 June snowfall 0.0  
Since 1 July snowfall 0.0  
Snow Depth -    
Sea Level Pressure  
Sea Level Pressure 29.84 in    
Wind  
Wind Speed 4 mph (WSW)    
Max Wind Speed 17 mph    
Max Gust Speed 26 mph    
Visibility 10 miles    
Events      
T = Trace of Precipitation, MM = Missing Value Source: NWS Daily Summary

Daily Weather History Graph

Daily Weather History Graph

Search for Another Location

Airport:

Trip Planner

Search our weather history database for the weather conditions in past years. The results will help you decide how hot, cold, wet, or windy it might be!

Date:

Astronomy

Jul. 27, 2013 Rise Set
Actual Time 6:24 AM EDT 9:02 PM EDT
Civil Twilight 5:52 AM EDT 9:35 PM EDT
Nautical Twilight 5:11 AM EDT 10:15 PM EDT
Astronomical Twilight 4:25 AM EDT 11:01 PM EDT
Moon 11:40 PM EDT (7/27) 12:13 PM EDT (7/27)
Length of Visible Light 15h 42m
Length of Day
14h 38m
Waning Gibbous, 71% of the Moon is Illuminated
Jul 27
Waning Gibbous
Jul 29
Last Quarter
Aug 6
New
Aug 14
First Quarter
Aug 20
Full

Hourly Weather History & Observations

Time (EDT) Temp. Dew Point Humidity Pressure Visibility Wind Dir Wind Speed Gust Speed Precip Events Conditions
12:11 AM 65.3 °F 60.4 °F 84% 29.92 in 10.0 mi Calm Calm - N/A   Overcast
12:32 AM 65.3 °F 60.1 °F 83% 29.91 in 10.0 mi Calm Calm - N/A   Overcast
12:51 AM 65.3 °F 60.3 °F 84% 29.91 in 10.0 mi SSW 3.5 mph - N/A   Overcast
1:11 AM 65.3 °F 60.8 °F 85% 29.91 in 10.0 mi SSE 3.5 mph - N/A   Overcast
1:31 AM 65.1 °F 60.8 °F 86% 29.90 in 10.0 mi South 4.6 mph - N/A   Overcast
1:51 AM 65.3 °F 61.0 °F 86% 29.89 in 10.0 mi South 3.5 mph - N/A   Overcast
2:11 AM 64.9 °F 61.2 °F 88% 29.89 in 10.0 mi Calm Calm - N/A   Overcast
2:31 AM 65.1 °F 61.2 °F 87% 29.88 in 10.0 mi South 4.6 mph - N/A   Overcast
2:51 AM 64.9 °F 61.2 °F 88% 29.88 in 10.0 mi South 4.6 mph - N/A   Overcast
3:12 AM 64.9 °F 61.0 °F 87% 29.87 in 10.0 mi SSE 5.8 mph - N/A   Overcast
3:31 AM 64.9 °F 61.2 °F 88% 29.87 in 10.0 mi Calm Calm - N/A   Overcast
3:51 AM 64.9 °F 61.2 °F 88% 29.87 in 10.0 mi South 3.5 mph - N/A   Overcast
4:12 AM 65.3 °F 61.2 °F 86% 29.87 in 10.0 mi South 3.5 mph - N/A   Overcast
4:31 AM 65.3 °F 61.2 °F 86% 29.86 in 10.0 mi Calm Calm - N/A   Overcast
4:51 AM 64.9 °F 61.2 °F 88% 29.86 in 10.0 mi SSE 4.6 mph - N/A   Overcast
5:11 AM 64.6 °F 61.0 °F 88% 29.86 in 10.0 mi Calm Calm - N/A   Mostly Cloudy
5:31 AM 63.9 °F 60.6 °F 89% 29.86 in 10.0 mi Calm Calm - N/A   Scattered Clouds
5:52 AM 63.1 °F 60.3 °F 90% 29.86 in 10.0 mi Calm Calm - N/A   Mostly Cloudy
6:11 AM 63.7 °F 60.8 °F 90% 29.86 in 10.0 mi Calm Calm - N/A   Overcast
6:31 AM 63.7 °F 60.8 °F 90% 29.86 in 10.0 mi Calm Calm - N/A   Overcast
6:51 AM 63.9 °F 61.0 °F 90% 29.86 in 7.0 mi Calm Calm - N/A   Overcast
7:11 AM 64.2 °F 61.3 °F 90% 29.86 in 7.0 mi Calm Calm - N/A   Overcast
7:32 AM 64.4 °F 61.7 °F 91% 29.86 in 7.0 mi South 4.6 mph - N/A   Overcast
7:51 AM 64.8 °F 61.7 °F 90% 29.86 in 7.0 mi Calm Calm - N/A   Overcast
8:11 AM 65.3 °F 62.1 °F 89% 29.86 in 7.0 mi Calm Calm - N/A   Overcast
8:32 AM 66.4 °F 62.6 °F 88% 29.86 in 7.0 mi Calm Calm - N/A   Overcast
8:51 AM 66.6 °F 62.1 °F 85% 29.86 in 7.0 mi Calm Calm - N/A   Overcast
9:11 AM 67.1 °F 62.4 °F 85% 29.86 in 7.0 mi Calm Calm - N/A   Overcast
9:32 AM 67.5 °F 61.7 °F 82% 29.86 in 7.0 mi SW 4.6 mph - N/A   Overcast
9:51 AM 67.6 °F 61.7 °F 81% 29.85 in 10.0 mi West 3.5 mph - N/A   Overcast
10:12 AM 69.1 °F 62.6 °F 80% 29.84 in 10.0 mi West 3.5 mph - N/A   Mostly Cloudy
10:32 AM 68.5 °F 62.1 °F 80% 29.84 in 10.0 mi Calm Calm - N/A   Mostly Cloudy
10:51 AM 69.1 °F 61.9 °F 78% 29.83 in 10.0 mi WSW 3.5 mph - N/A   Scattered Clouds
11:12 AM 70.3 °F 61.7 °F 74% 29.83 in 10.0 mi SSW 3.5 mph - N/A   Mostly Cloudy
11:31 AM 70.7 °F 61.5 °F 73% 29.82 in 10.0 mi SSE 3.5 mph - N/A   Overcast
11:51 AM 71.6 °F 61.0 °F 69% 29.82 in 10.0 mi Calm Calm - N/A   Mostly Cloudy
12:11 PM 72.9 °F 61.3 °F 67% 29.81 in 10.0 mi Calm Calm - N/A   Mostly Cloudy
12:31 PM 73.6 °F 59.9 °F 62% 29.80 in 10.0 mi Calm Calm - N/A   Mostly Cloudy
12:52 PM 74.8 °F 60.1 °F 60% 29.79 in 10.0 mi Calm Calm - N/A   Overcast
1:11 PM 75.6 °F 59.5 °F 57% 29.78 in 10.0 mi West 4.6 mph - N/A   Overcast
1:31 PM 77.0 °F 57.2 °F 50% 29.78 in 10.0 mi SW 9.2 mph - N/A   Mostly Cloudy
1:52 PM 71.1 °F 59.0 °F 66% 29.78 in 10.0 mi West 17.3 mph 21.9 mph N/A   Overcast
2:11 PM 73.2 °F 58.8 °F 61% 29.78 in 10.0 mi WNW 15.0 mph 20.7 mph N/A   Scattered Clouds
2:32 PM 73.0 °F 57.7 °F 59% 29.78 in 10.0 mi NW 16.1 mph - N/A   Clear
2:52 PM 73.6 °F 58.3 °F 59% 29.77 in 10.0 mi NW 12.7 mph 19.6 mph N/A   Scattered Clouds
3:11 PM 74.5 °F 58.1 °F 57% 29.77 in 10.0 mi WNW 9.2 mph 18.4 mph N/A   Scattered Clouds
3:32 PM 73.0 °F 59.2 °F 62% 29.77 in 10.0 mi NW 8.1 mph 16.1 mph N/A   Overcast
3:52 PM 73.8 °F 56.8 °F 55% 29.77 in 10.0 mi West 17.3 mph 23.0 mph N/A   Mostly Cloudy
4:11 PM 73.2 °F 55.9 °F 55% 29.78 in 10.0 mi WNW 11.5 mph - N/A   Mostly Cloudy
4:32 PM 71.8 °F 54.5 °F 54% 29.78 in 10.0 mi West 13.8 mph 24.2 mph N/A   Overcast
4:52 PM 69.8 °F 55.2 °F 60% 29.79 in 10.0 mi WNW 13.8 mph 21.9 mph N/A   Overcast
5:11 PM 68.4 °F 53.8 °F 60% 29.79 in 10.0 mi West 15.0 mph 20.7 mph N/A   Overcast
5:32 PM 68.0 °F 55.2 °F 64% 29.80 in 10.0 mi West 16.1 mph 20.7 mph N/A   Overcast
5:52 PM 67.1 °F 54.7 °F 64% 29.80 in 10.0 mi WNW 11.5 mph 24.2 mph N/A   Overcast
6:11 PM 66.4 °F 53.1 °F 62% 29.81 in 10.0 mi WNW 13.8 mph 26.5 mph N/A   Overcast
6:32 PM 64.9 °F 52.0 °F 63% 29.82 in 10.0 mi WNW 13.8 mph 25.3 mph N/A   Overcast
6:52 PM 64.4 °F 52.2 °F 64% 29.82 in 10.0 mi WNW 13.8 mph 17.3 mph N/A   Overcast
7:11 PM 64.0 °F 52.7 °F 67% 29.83 in 10.0 mi West 15.0 mph 19.6 mph N/A   Overcast
7:32 PM 63.3 °F 50.4 °F 63% 29.85 in 10.0 mi WNW 13.8 mph - N/A   Overcast
7:51 PM 62.8 °F 49.3 °F 61% 29.85 in 10.0 mi West 13.8 mph 20.7 mph N/A   Overcast
8:12 PM 62.6 °F 49.6 °F 63% 29.85 in 10.0 mi West 12.7 mph 18.4 mph N/A   Mostly Cloudy
8:32 PM 61.7 °F 49.3 °F 64% 29.85 in 10.0 mi West 8.1 mph - N/A   Scattered Clouds
8:51 PM 60.8 °F 48.2 °F 63% 29.85 in 10.0 mi West 11.5 mph 16.1 mph N/A   Scattered Clouds
9:12 PM 59.4 °F 47.3 °F 64% 29.86 in 10.0 mi West 8.1 mph - N/A   Clear
9:32 PM 58.3 °F 47.5 °F 67% 29.87 in 10.0 mi West 9.2 mph - N/A   Scattered Clouds
9:51 PM 58.1 °F 48.2 °F 70% 29.87 in 10.0 mi West 10.4 mph - N/A   Mostly Cloudy
10:12 PM 58.1 °F 48.0 °F 69% 29.87 in 10.0 mi WNW 11.5 mph 16.1 mph N/A   Overcast
10:32 PM 57.7 °F 47.7 °F 69% 29.87 in 10.0 mi WNW 11.5 mph - N/A   Overcast
10:51 PM 57.4 °F 47.7 °F 70% 29.88 in 10.0 mi West 6.9 mph - N/A   Overcast
11:12 PM 57.2 °F 48.2 °F 72% 29.88 in 10.0 mi West 4.6 mph - N/A   Overcast
11:32 PM 56.7 °F 47.3 °F 71% 29.87 in 10.0 mi West 4.6 mph - N/A   Overcast
11:51 PM 56.7 °F 47.7 °F 72% 29.87 in 10.0 mi West 4.6 mph - N/A   Overcast